Weather History for London-Corbin, KY

Change the Weather History Date:

Friday, February 1, 2013

  Actual Average Record
Temperature  
Mean Temperature 22 °F 37 °F  
Max Temperature 32 °F 46 °F 71 °F (1988)
Min Temperature 12 °F 27 °F -11 °F (1971)
Degree Days  
Heating Degree Days 43 28  
Month to date heating degree days 43 28  
Since 1 July heating degree days 2626 2591  
Cooling Degree Days 0 0  
Month to date cooling degree days 0 0  
Year to date cooling degree days 0 0  
Moisture  
Dew Point 11 °F    
Average Humidity 72    
Maximum Humidity 92    
Minimum Humidity 52    
Precipitation  
Precipitation 0.01 in 0.13 in 2.09 in (1981)
Month to date precipitation 0.01 0.13  
Year to date precipitation 5.25 3.67  
Sea Level Pressure  
Sea Level Pressure 30.29 in    
Wind  
Wind Speed 7 mph (WNW)    
Max Wind Speed 29 mph    
Max Gust Speed 38 mph    
Visibility 8 miles    
Events Snow    
T = Trace of Precipitation, MM = Missing Value Source: NWS Daily Summary

Daily Weather History Graph

Daily Weather History Graph

Search for Another Location

Airport:

Trip Planner

Search our weather history database for the weather conditions in past years. The results will help you decide how hot, cold, wet, or windy it might be!

Date:

Astronomy

Feb. 01, 2013 Rise Set
Actual Time 7:38 AM EST 6:01 PM EST
Civil Twilight 7:11 AM EST 6:28 PM EST
Nautical Twilight 6:40 AM EST 7:00 PM EST
Astronomical Twilight 6:09 AM EST 7:30 PM EST
Moon 11:57 PM EST (2/1) 10:20 AM EST (2/1)
Length of Visible Light 11h 17m
Length of Day
10h 22m
Waning Gibbous, 70% of the Moon is Illuminated
Feb 1
Waning Gibbous
Feb 3
Last Quarter
Feb 10
New
Feb 17
First Quarter
Feb 25
Full

Hourly Weather History & Observations

Time (EST) Temp. Windchill Dew Point Humidity Pressure Visibility Wind Dir Wind Speed Gust Speed Precip Events Conditions
12:03 AM 32.0 °F 21.2 °F 30.2 °F 93% 29.95 in 1.5 mi West 16.1 mph 26.5 mph 0.00 in Snow Light Snow
12:37 AM 26.6 °F 11.7 °F 24.8 °F 93% 29.99 in 0.8 mi NW 24.2 mph 35.7 mph 0.01 in Snow Light Snow
12:43 AM 26.6 °F 13.8 °F 23.0 °F 86% 30.01 in 1.0 mi NW 17.3 mph 35.7 mph 0.01 in Snow Light Snow
12:53 AM 25.0 °F 10.9 °F 21.9 °F 88% 30.06 in 1.2 mi NW 19.6 mph 26.5 mph 0.01 in Snow Light Snow
1:08 AM 24.8 °F 11.5 °F 21.2 °F 86% 30.05 in 1.5 mi NW 17.3 mph 26.5 mph 0.00 in Snow Light Snow
1:23 AM 24.8 °F 12.4 °F 19.4 °F 80% 30.06 in 3.0 mi NW 15.0 mph 25.3 mph 0.00 in Snow Light Snow
1:53 AM 23.0 °F 8.7 °F 16.0 °F 74% 30.12 in 10.0 mi WNW 18.4 mph 38.0 mph 0.00 in   Overcast
2:18 AM 21.2 °F 5.6 °F 14.0 °F 74% 30.11 in 10.0 mi WNW 20.7 mph 31.1 mph N/A   Overcast
2:53 AM 21.0 °F 7.1 °F 12.0 °F 68% 30.18 in 10.0 mi WNW 16.1 mph 29.9 mph N/A   Overcast
3:35 AM 17.6 °F 2.7 °F 10.4 °F 73% 30.19 in 10.0 mi NW 16.1 mph 31.1 mph 0.00 in   Overcast
3:53 AM 17.1 °F 3.6 °F 10.0 °F 74% 30.23 in 10.0 mi NW 12.7 mph - 0.00 in   Overcast
4:31 AM 15.8 °F 2.1 °F 6.8 °F 68% 30.22 in 10.0 mi NW 12.7 mph 21.9 mph N/A   Overcast
4:53 AM 15.1 °F -0.6 °F 6.1 °F 68% 30.27 in 10.0 mi NW 16.1 mph 23.0 mph N/A   Overcast
5:53 AM 14.0 °F 2.9 °F 5.0 °F 67% 30.30 in 10.0 mi WNW 8.1 mph - N/A   Overcast
6:13 AM 12.2 °F 1.7 °F 6.8 °F 79% 30.27 in 10.0 mi NW 6.9 mph - N/A   Overcast
6:42 AM 12.2 °F 1.7 °F 6.8 °F 79% 30.29 in 9.0 mi NW 6.9 mph - 0.00 in   Overcast
7:16 AM 12.2 °F -0.2 °F 6.8 °F 79% 30.30 in 9.0 mi WNW 9.2 mph - 0.00 in Snow Light Snow
7:53 AM 12.9 °F 0.7 °F 5.0 °F 71% 30.36 in 10.0 mi NW 9.2 mph - 0.00 in   Mostly Cloudy
8:39 AM 12.2 °F -1.8 °F 3.2 °F 67% 30.35 in 10.0 mi WNW 11.5 mph - N/A   Scattered Clouds
8:53 AM 12.9 °F 0.7 °F 3.9 °F 67% 30.40 in 10.0 mi NW 9.2 mph - N/A   Partly Cloudy
9:19 AM 14.0 °F 2.9 °F 5.0 °F 67% 30.36 in 10.0 mi West 8.1 mph - N/A   Mostly Cloudy
9:53 AM 14.0 °F 2.0 °F 5.0 °F 67% 30.43 in 10.0 mi West 9.2 mph - N/A   Mostly Cloudy
10:53 AM 15.1 °F 1.8 °F 7.0 °F 70% 30.44 in 10.0 mi WNW 11.5 mph - N/A   Overcast
11:53 AM 17.1 °F 6.6 °F 7.0 °F 65% 30.45 in 10.0 mi WNW 8.1 mph 18.4 mph N/A   Mostly Cloudy
12:06 PM 17.6 °F 6.4 °F 6.8 °F 63% 30.41 in 10.0 mi West 9.2 mph - N/A   Scattered Clouds
12:53 PM 19.0 °F 10.0 °F 9.0 °F 65% 30.44 in 10.0 mi NW 6.9 mph - N/A   Mostly Cloudy
1:53 PM 19.9 °F 13.4 °F 9.0 °F 62% 30.43 in 10.0 mi WNW 4.6 mph - N/A   Partly Cloudy
3:53 PM 21.9 °F 14.5 °F 7.0 °F 53% 30.41 in 10.0 mi WSW 5.8 mph - N/A   Clear
4:53 PM 21.9 °F 15.7 °F 7.0 °F 53% 30.40 in 10.0 mi West 4.6 mph - N/A   Clear
5:53 PM 21.0 °F 14.6 °F 8.1 °F 57% 30.40 in 10.0 mi WNW 4.6 mph - N/A   Clear
6:53 PM 19.9 °F - 8.1 °F 60% 30.42 in 10.0 mi Calm Calm - N/A   Clear
7:53 PM 19.0 °F - 9.0 °F 65% 30.43 in 10.0 mi Calm Calm - N/A   Clear
8:53 PM 18.0 °F - 9.0 °F 68% 30.43 in 10.0 mi Calm Calm - N/A   Clear
9:53 PM 17.1 °F - 12.0 °F 81% 30.41 in 10.0 mi Calm Calm - N/A   Clear
10:53 PM 17.1 °F - 12.9 °F 84% 30.41 in 10.0 mi Calm Calm - N/A   Clear
11:53 PM 19.0 °F - 12.0 °F 74% 30.39 in 10.0 mi Calm Calm - N/A   Clear